EKCHEKRN

Guest
Details From EKCH - Kastrup
To EKRN - Bornholm Ronne
Flight Number -
Tags Generated
Created
Modified
Stats Distance 80 nm / 148 km
Max Altitude 0 ft / 0 m
Waypoints 2
Social Downloads 3
Likes 0
Share VATSIM

Download

Looking for another format? Having issues loading an existing format? Contact us
Advertisement - Login to hide

Notes

Generated

Route

EKCH EKRN

ID Type Via Altitude Latitude Longitude Leg Dist Tot Dist Heading (true) Name
O EKCH APT - 0 ft / 0 m 55.62761˚ 12.62973˚ - 0 nm - -
O EKRN APT - 0 ft / 0 m 55.06709˚ 14.74438˚ 79 nm 79 nm 114° / 116° -

Altitude Profile

Advertisement - Login to hide

EKCH

Details ICAO EKCH (CPH)
Name Kastrup
Region Denmark / Faroe Islands
Timezone Europe/Copenhagen (UTC+2.0)
Stats Elevation 17 ft / 5 m (AMSL)
Location 55.612915° 12.640961°
Runways 3
Magnetic Variation 3.788° E

METAR

EKCH 210920Z 13008KT CAVOK 18/08 Q1027 NOSIG

Decode

TAF

TAF EKCH 210512Z 2106/2206 09008KT CAVOK

Decode

Departure Runways

ID Width Length Bearing (true) Bearing (mag) Surface Threshold Offset Overrun Length
04L 148 ft / 45 m 11,848 ft / 3,611 m 41.15° 37.36° Asphalt 0 ft / 0 m 0 ft / 0 m
04R 148 ft / 45 m 10,814 ft / 3,296 m 41.15° 37.36° Asphalt 0 ft / 0 m 0 ft / 0 m
12 148 ft / 45 m 10,047 ft / 3,063 m 123.21° 119.42° Asphalt 2,313 ft / 705 m 0 ft / 0 m
22L 148 ft / 45 m 10,814 ft / 3,296 m 221.17° 217.38° Asphalt 0 ft / 0 m 0 ft / 0 m
22R 148 ft / 45 m 11,848 ft / 3,611 m 221.18° 217.39° Asphalt 2,018 ft / 615 m 0 ft / 0 m
30 148 ft / 45 m 10,047 ft / 3,063 m 303.25° 299.46° Asphalt 886 ft / 270 m 0 ft / 0 m

EKRN

Details ICAO EKRN (RNN)
Name Bornholm Ronne
Region Denmark / Faroe Islands
Timezone Europe/Copenhagen (UTC+2.0)
Stats Elevation 52 ft / 16 m (AMSL)
Location 55.063265° 14.759558°
Runways 1
Magnetic Variation 4.444° E

METAR

EKRN 210920Z AUTO 09013KT 9999NDV NCD 18/04 Q1027

Decode

TAF

Not found

Destination Runways

ID Width Length Bearing (true) Bearing (mag) Surface Threshold Offset Overrun Length
11 164 ft / 50 m 6,551 ft / 1,997 m 113.76° 109.32° Asphalt 0 ft / 0 m 197 ft / 60 m
29 164 ft / 50 m 6,551 ft / 1,997 m 293.78° 289.34° Asphalt 0 ft / 0 m 0 ft / 0 m

Approach Navaids

Runway Type Ident Frequency Range Bearing (true) Bearing (mag) Slope Elevation
11 Localiser IAR 109.35 MHz 18 nm / 33 km 113.78° 109.34° - 52 ft / 16 m (AMSL)
11 Glidescope IAR 109.35 MHz 10 nm / 19 km 113.77° 109.33° 3.00° 52 ft / 16 m (AMSL)
11 DME IAR 109.35 MHz 18 nm / 33 km - - - 52 ft / 16 m (AMSL)
29 Localiser IRE 110.30 MHz 18 nm / 33 km 295.54° 291.10° - 52 ft / 16 m (AMSL)
29 Glidescope IRE 110.30 MHz 10 nm / 19 km 293.77° 289.33° 3.00° 52 ft / 16 m (AMSL)
29 DME IRE 110.30 MHz 18 nm / 33 km - - - 55 ft / 17 m (AMSL)

Popular Alternatives